SCP
0 0 0 0 0 0 0 0 0 0 0 0 0 0 0 0 0 0 0 0 0 0 0 0 0 0 0 0 0 0 0 0 0 0 0 0 0 0 0 0 0 0 0
0 0 0 0 0 0 0 0 0 0 0 0 0 0 0 0 0 0 0 0 0 0 0 0 0 0 0 0 0 0 0 0 0 0 0 0 0 0 0 0 0 0 0
0 0 0 0 0 0 0 0 0 0 0 0 0 0 0 0 0 0 0 0 0 0 0 0 0 0 0 0 0 0 0 0 0 0 0 0 0 0 0 0 0 0 0
0 0 0 0 0 0 0 0 0 0 0 0 0 0 0 0 0 0 0 0 0 0 0 0 0 0 0 0 0 0 0 0 0 0 0 0 0 0 0 0 0 0 0
0 0 0 0 0 0 0 0 0 0 0 0 0 0 0 0 0 0 0 0 0 0 0 0 0 0 0 0 0 0 0 0 0 0 0 0 0 0 0 0 0 0 0
0 0 0 0 0 0 0 0 0 0 0 0 0 0 0 0 0 0 0 0 0 0 0 0 0 0 0 0 0 0 0 0 0 0 0 0 0 0 0 0 0 0 0
-0 -0 0 0 0 0 0 0 0 0 0 0 0 0 0 0 0 0 0 0 0 0 0 0 0 0 0 0 0 0 0 0 0 0 0 0 0 0 0 0 0 0 0
-0 -0 -0 -0 0 0 0 0 0 0 0 0 0 0 0 0 0 0 0 0 0 0 0 0 0 0 0 0 0 0 0 0 0 0 0 0 0 0 0 0 0 0 0
-0 -0 -0 -0 -0 0 0 0 0 0 0 0 0 0 0 0 0 0 0 0 0 0 0 0 0 0 0 0 0 0 0 0 0 0 0 0 0 0 0 0 0 0 0
-0 -0 -0 -0 -0 -0 0 0 0 0 0 0 0 0 0 0 0 0 0 0 0 0 0 0 0 0 0 0 0 0 0 0 0 0 0 0 0 0 0 0 0 0 0
-0 -0 -0 -0 -0 -0 0 0 0 0 0 0 0 0 0 0 0 0 0 0 0 0 0 0 0 0 0 0 0 0 0 0 0 0 0 0 0 0 0 0 0 0 0
-0 -0 -0 -0 0 0 0 0 0 0 0 0 0 0 0 0 0 0 0 0 0 0 0 0 0 0 0 0 0 0 0 0 0 0 0 0 0 0 0 0 0 0 0
-0 -0 -0 0 0 0 0 0 0 0 0 0 0 0 0 0 0 0 0 0 0 0 0 0 0 0 0 0 0 0 0 0 0 0 0 0 0 0 0 0 0 0 0
-0 -0 -0 0 0 0 0 0 0 0 0 0 0 0 0 0 0 0 0 0 0 0 0 0 0 0 0 0 0 0 0 0 0 0 0 0 0 0 0 0 0 0 0
-0 -0 -0 0 0 0 0 0 0 0 0 0 0 0 0 0 0 0 0 0 0 0 0 0 0 0 0 0 0 0 0 0 0 0 0 0 0 0 0 0 0 0 0
-0 -0 -0 0 0 0 0 0 0 0 0 0 -0 -0 -0 0 0 0 0 0 0 0 0 0 0 0 0 0 0 0 0 0 0 0 0 0 0 0 0 0 0 0 0
-0 -0 -0 0 0 0 0 0 0 0 -0 0 0 0 0 0 0 -0 0 0 0 0 0 0 0 0 0 0 0 0 0 0 0 0 0 0 0 0 0 0 0 0 0
-0 -0 -0 0 0 0 0 0 0 -0 0 0 0 0 0 0 0 -0 0 0 0 0 0 0 0 0 0 0 0 0 0 0 0 0 0 0 0 0 0 0 0 0 0
-0 -0 -0 -0 -0 0 0 0 0 0 0 0 0 0 0 0 0 0 0 0 0 0 0 0 0 0 0 0 0 0 0 0 0 0 0 0 0 0 0 0 0 0 0
-0 -0 -0 -0 -0 0 0 0 0 0 0 0 0 0 0 0 0 0 0 0 0 0 0 0 0 0 0 0 0 0 0 0 0 0 0 0 0 0 0 0 0 0 0
-0 0 0 0 -0 0 0 0 0 0 0 0 0 0 0 0 0 0 0 0 0 0 0 0 0 0 0 0 0 0 0 0 0 0 0 0 0 0 0 0 0 0 0
-0 -0 0 0 -0 0 0 0 0 0 0 0 0 0 0 0 0 0 0 0 0 0 0 0 0 0 0 0 0 0 0 0 0 0 0 0 0 0 0 0 0 0 0
-0 -0 0 0 0 0 0 0 0 0 0 0 0 0 0 0 0 0 0 0 0 0 0 0 0 0 0 0 0 0 0 0 0 0 0 0 0 0 0 0 0 0 0
0 0 0 0 0 0 0 0 0 0 0 0 0 0 0 0 0 0 0 0 0 0 0 0 0 0 0 0 0 0 0 0 0 0 0 0 0 0 0 0 0 0 0
0 0 0 0 0 0 0 0 0 0 0 0 0 0 0 0 0 0 0 0 0 0 0 0 0 0 0 0 0 0 0 0 0 0 0 0 0 0 0 0 0 0 0
0 0 0 0 0 0 0 0 0 0 0 0 0 0 0 0 0 0 0 0 0 0 0 0 0 0 0 0 0 0 0 0 0 0 0 0 0 0 0 0 0 0 0
Wind_Speed
0 0 5 8 9 9 10 10 10 10 10 10 10 10 9 9 9 9 8 8 8 7 7 7 7 7 7 6 6 5 5 5 5 5 4 4 3 3 3 3 3 2 4
3 2 6 8 8 9 10 10 10 10 10 9 9 9 9 8 8 8 8 7 7 7 6 6 6 6 6 6 5 5 5 5 5 5 5 4 3 3 3 3 3 2 4
4 3 5 8 8 9 9 10 9 9 9 9 9 9 8 8 8 8 8 7 7 6 6 5 5 5 5 5 5 5 6 5 5 5 5 3 3 2 3 3 3 3 4
5 4 5 9 9 9 9 9 9 9 9 9 9 9 8 8 8 8 8 7 6 6 6 5 5 5 5 5 5 5 5 5 5 5 3 2 3 2 2 3 3 3 4
5 4 5 9 9 8 9 9 9 9 9 8 8 8 8 7 7 7 7 6 6 6 6 6 5 5 5 5 5 5 5 5 6 5 3 3 3 2 2 2 3 3 3
4 4 4 8 8 8 8 8 8 8 8 8 8 7 7 6 6 6 6 6 6 6 6 5 5 5 5 5 5 5 5 5 5 3 3 2 2 3 2 2 2 3 3
4 3 3 7 7 7 8 8 8 8 7 7 7 6 6 5 5 5 5 5 6 6 6 6 5 5 5 5 5 5 5 5 3 2 3 3 3 3 2 2 2 2 3
4 3 2 6 7 6 6 6 6 6 6 6 6 5 5 5 5 5 5 5 6 6 6 6 6 6 6 6 5 5 5 5 3 3 3 2 4 3 1 1 1 2 3
3 3 2 3 3 4 4 5 5 5 5 5 6 6 6 6 6 6 6 6 6 6 6 6 6 6 6 6 6 5 5 4 2 2 3 2 5 4 1 1 1 1 2
2 2 1 2 3 3 4 4 4 5 6 6 7 7 7 8 8 7 6 6 6 7 7 7 7 7 7 6 6 5 4 3 2 2 2 3 5 4 2 1 1 1 1
1 0 0 1 1 2 2 4 5 6 7 7 7 8 7 4 5 5 6 7 7 7 7 8 8 8 7 7 6 6 4 1 1 1 2 4 5 3 2 1 1 1 1
2 2 1 1 1 1 2 3 3 3 4 4 3 4 3 3 4 5 7 9 9 9 9 10 9 8 6 3 4 5 2 2 1 1 2 4 4 2 1 1 1 1 1
3 2 2 2 1 0 1 1 2 2 2 3 4 4 3 3 3 4 3 4 5 6 5 6 6 4 3 3 2 2 2 2 1 1 2 5 3 1 1 1 1 1 1
2 2 2 2 1 1 1 1 1 2 2 2 3 4 3 2 3 3 2 3 3 2 3 3 3 4 4 3 3 2 3 2 1 1 2 4 3 2 2 1 0 0 1
2 2 1 2 2 2 1 1 2 2 2 2 3 3 3 2 2 2 2 3 3 2 3 3 3 4 4 4 3 3 3 3 2 2 2 4 4 3 3 1 1 1 0
2 1 1 2 2 3 2 2 2 2 2 2 3 3 3 2 2 2 3 3 3 3 2 2 3 3 3 3 3 3 3 3 3 3 2 3 4 4 3 2 1 1 1
3 2 3 3 3 4 3 3 2 2 2 3 3 3 4 3 3 3 3 3 3 3 3 3 3 3 3 3 4 4 3 3 3 3 2 2 3 4 4 3 2 1 1
4 3 3 4 5 4 4 3 3 3 3 3 3 3 4 4 3 3 3 3 3 3 3 3 3 3 3 3 3 3 3 3 3 3 2 2 2 2 4 5 3 2 2
4 4 4 5 5 5 5 4 4 3 3 2 3 3 3 4 4 3 3 3 3 3 3 3 3 2 3 3 3 3 3 3 3 3 4 3 3 2 2 3 5 4 2
4 5 5 5 5 5 4 4 3 3 3 2 3 3 4 3 4 3 3 4 4 3 4 4 3 3 2 3 3 4 3 3 3 4 4 3 3 3 3 3 3 3 4
5 5 4 5 4 4 2 2 2 1 1 2 2 3 3 4 4 4 3 4 4 3 3 4 2 3 3 3 3 3 4 4 4 4 3 3 4 4 3 3 2 2 2
5 5 4 4 4 3 2 2 2 1 0 1 2 3 3 4 4 3 3 3 3 3 5 5 4 2 3 4 2 2 3 4 4 4 4 4 4 3 3 3 2 2 2
5 5 5 4 4 3 3 3 3 2 2 2 3 2 3 3 3 3 3 3 3 3 3 3 3 3 2 3 3 2 2 1 3 3 3 4 4 3 3 3 3 2 2
4 4 5 5 4 3 3 3 3 2 1 1 1 2 3 3 3 3 3 3 3 2 3 3 3 2 2 2 2 2 2 1 1 2 3 3 3 3 3 3 3 2 2
4 4 4 5 4 3 3 3 3 2 1 0 1 2 3 3 3 3 2 2 3 2 3 3 3 3 2 1 1 1 2 2 1 1 2 4 3 3 3 3 2 2 2
4 4 4 5 3 3 3 3 3 3 2 1 1 2 2 2 3 3 2 2 2 2 2 2 2 3 2 2 1 1 1 1 1 1 0 2 3 3 3 2 2 2 2
Wind_Direction
88 264 118 106 101 97 93 93 92 91 90 90 89 89 88 85 82 79 76 76 74 70 68 65 63 62 62 61 59 55 51 49 47 43 41 44 51 49 51 43 38 23 28
129 113 113 108 103 99 96 93 91 90 90 88 87 86 86 83 80 77 72 70 69 66 62 59 55 54 54 50 45 41 40 41 37 33 31 30 31 38 49 44 41 40 36
104 92 101 105 101 99 98 95 91 88 87 85 85 85 83 80 75 70 66 61 56 53 51 50 45 44 42 40 32 28 28 29 27 30 32 14 353 24 43 42 40 38 35
106 95 103 105 100 96 95 93 90 89 85 83 81 80 78 75 71 65 60 55 51 47 42 40 34 29 25 23 21 19 20 20 21 26 25 360 342 2 24 30 31 36 33
96 90 106 105 101 99 96 92 90 88 84 81 79 76 73 71 67 62 57 51 45 40 34 26 18 12 10 9 9 10 12 13 20 24 13 359 343 331 1 12 21 29 35
96 91 109 109 106 102 98 94 91 88 85 80 75 71 68 64 58 54 46 40 35 29 24 16 6 357 356 359 359 360 3 10 23 17 3 344 330 320 354 15 28 32 38
112 101 110 113 110 106 102 98 94 89 83 76 69 62 55 51 45 40 33 25 21 16 12 9 1 352 347 344 345 349 353 3 30 10 355 335 316 312 346 18 28 31 43
120 102 90 113 111 104 99 95 90 83 76 67 57 47 37 29 21 15 12 11 7 1 0 1 355 348 344 338 332 333 339 352 10 359 337 320 309 310 326 5 6 21 41
101 91 58 49 69 87 89 84 75 65 56 46 38 30 23 18 12 4 1 359 356 355 357 359 355 348 342 335 329 327 330 343 10 334 327 321 304 305 303 347 353 3 36
87 83 68 45 43 36 26 36 43 36 32 26 22 21 22 16 8 4 1 358 355 358 2 4 3 359 356 350 343 341 342 2 353 330 321 303 301 299 292 315 339 356 18
160 53 59 30 27 27 9 14 18 18 22 21 15 15 20 8 0 359 359 6 7 10 12 11 12 14 13 5 4 9 14 22 337 316 302 297 300 295 292 304 320 343 9
215 231 216 228 305 3 1 26 11 17 17 15 13 14 15 11 5 15 9 18 18 21 18 18 19 19 19 5 5 17 16 359 347 315 305 308 307 294 293 307 324 340 357
218 230 207 202 220 278 9 18 16 16 15 12 15 18 25 24 13 19 15 12 12 19 15 10 11 7 5 3 3 6 5 5 353 327 323 321 322 309 310 310 329 335 337
196 223 217 180 167 141 66 34 34 31 19 12 9 18 36 34 24 18 19 7 9 2 4 5 358 357 359 2 8 12 8 7 358 346 329 335 338 341 343 332 302 298 316
201 215 196 152 144 128 99 64 63 46 35 22 19 22 45 52 37 27 18 13 8 4 6 0 358 358 1 2 10 15 4 359 359 1 345 345 344 352 356 357 348 342 340
187 167 125 121 130 121 103 87 72 65 52 40 31 27 40 51 48 37 25 13 4 359 358 0 357 357 354 0 9 6 5 2 360 358 355 352 358 7 10 357 333 6 358
164 134 124 123 112 107 100 93 85 68 59 47 28 26 35 42 43 40 30 12 354 351 357 7 6 10 13 13 9 6 13 9 8 7 9 12 7 13 14 11 6 7 3
142 133 126 119 109 102 97 91 81 65 58 45 31 28 32 38 44 43 32 9 352 360 8 13 13 11 12 12 9 7 12 14 19 15 22 23 20 14 12 16 20 18 24
147 135 113 109 111 103 93 84 77 67 58 43 34 29 27 33 39 45 35 8 1 13 12 10 23 19 11 4 10 25 20 25 17 21 31 28 23 22 16 14 24 22 20
133 123 117 110 106 102 90 77 62 52 38 31 28 20 25 26 30 38 38 19 14 22 14 12 17 20 18 359 20 32 25 28 30 28 24 25 23 26 27 24 23 15 17
126 125 127 124 124 119 102 95 85 53 10 11 11 19 24 23 25 35 33 25 23 26 14 9 12 21 14 359 28 17 11 28 38 29 19 23 24 21 25 29 29 26 9
147 144 139 140 140 136 121 122 124 122 52 347 346 8 19 19 15 30 36 27 19 20 20 19 23 22 16 19 45 51 15 1 4 13 14 22 17 14 19 21 27 31 27
158 164 160 153 143 136 122 103 79 56 33 15 2 354 354 10 18 25 28 25 19 26 18 12 21 39 26 12 37 85 88 8 326 342 2 15 13 16 7 6 20 19 25
173 161 150 144 138 137 136 129 123 117 117 273 297 320 339 2 9 17 20 20 19 19 17 6 31 33 50 21 11 35 82 146 73 342 339 354 8 17 6 3 4 5 14
158 151 145 135 131 135 138 139 126 120 140 2 1 358 356 355 357 2 9 13 12 9 10 18 24 33 45 53 31 20 42 44 63 97 338 334 348 351 356 350 355 1 6
127 126 130 133 131 135 138 137 136 136 130 87 21 355 345 341 344 352 359 5 3 1 2 8 21 33 37 46 46 46 64 60 18 75 2 330 333 323 337 346 357 356 352